This is the latest recevied weather packets stored in our database for station/object M0XZS-2. If no packets are shown the sender has not sent any weather packets the latest 10 day(s).
| Time | Temp. | Humidity | Pressure | Rain* | Wind** | Luminosity | Snow |
|---|---|---|---|---|---|---|---|
| 1777707459 | 19.44° C | 42% | 1018.1 hPa | - | - | - | - |
| 1777706559 | 18.89° C | 43% | 1018.1 hPa | - | - | - | - |
| 1777705659 | 18.33° C | 43% | 1018 hPa | - | - | - | - |
| 1777704758 | 17.78° C | 44% | 1018.1 hPa | - | - | - | - |
| 1777703858 | 17.78° C | 44% | 1018.2 hPa | - | - | - | - |
| 1777702958 | 17.22° C | 45% | 1018.3 hPa | - | - | - | - |
| 1777701158 | 17.22° C | 44% | 1018.3 hPa | - | - | - | - |
| 1777700258 | 17.22° C | 44% | 1018.3 hPa | - | - | - | - |
| 1777699358 | 17.22° C | 44% | 1018.3 hPa | - | - | - | - |
| 1777698458 | 17.78° C | 43% | 1018.3 hPa | - | - | - | - |
| 1777697558 | 17.78° C | 43% | 1018.3 hPa | - | - | - | - |
| 1777696658 | 17.78° C | 42% | 1018.2 hPa | - | - | - | - |
| 1777695758 | 18.33° C | 42% | 1018.3 hPa | - | - | - | - |
| 1777694858 | 18.33° C | 41% | 1018.3 hPa | - | - | - | - |
| 1777693958 | 18.89° C | 40% | 1018.4 hPa | - | - | - | - |
| 1777693057 | 18.33° C | 41% | 1018.5 hPa | - | - | - | - |
| 1777692158 | 18.33° C | 42% | 1018.5 hPa | - | - | - | - |
| 1777691257 | 18.33° C | 41% | 1018.5 hPa | - | - | - | - |
| 1777690357 | 18.33° C | 41% | 1018.5 hPa | - | - | - | - |
| 1777689460 | 18.33° C | 40% | 1018.7 hPa | - | - | - | - |
| 1777688560 | 18.33° C | 40% | 1018.8 hPa | - | - | - | - |
| 1777687660 | 18.33° C | 39% | 1018.9 hPa | - | - | - | - |
| 1777686760 | 18.89° C | 39% | 1019 hPa | - | - | - | - |
| 1777685860 | 18.89° C | 39% | 1019.1 hPa | - | - | - | - |
| 1777684960 | 18.89° C | 39% | 1019.1 hPa | - | - | - | - |
* Rain since midnight (hover to see other rain measurements)
** Current wind speed in m/s (hover to see current wind gust speed)